www.pogodaiklimat.ru

Погода и климат >> Архив погоды >> Россия >> Ненецкий АО >> Усть-Кара


ПОГОДА в Усть-Каре

  • Прогноз погоды в Усть-Каре
  • Монитор погоды в Усть-Каре

АРХИВ ПОГОДЫ в Усть-Каре

Время (UTC), дата Ветер
(напр.,м/с)
 
Видим.   Явления Облачность Т
(С)
Тd
(С)
f
(%)
Тe
(С)
Тes
(С)
Комфортность P
(гПа)
Po
(гПа)
Тmin
(С)
Tmax
(С)
R
(мм)
R24
(мм)
S
(см)
03 17.04 Ю 7 20 км 10/6 600 м
[Sc Ac trans]
-18.8 -20.2 89 -30 -30 1024.4 1024.0 -23.1 111
06 17.04 ЮЗ 10-12
{12}
2000 м сильный позёмок 8/4 300 м
[St Ac trans]
-14.3 -15.4 91 -26 -26 1021.1 1020.7
09 17.04 Ю 13-17
{17}
200 м слаб. ливневой снег {метель} 10/8 300 м
[Cb cap Ac trans]
-11.8 -12.6 94 -24 -24 1016.4 1016.0
12 17.04 Ю 9-12
{18}
200 м слаб. ливневой снег {метель} 10/10 300 м
[Cb cap]
-9.1 -9.5 97 -19 -19 1012.0 1011.6
15 17.04 Ю 4
{12}
4000 м слаб. ливневой снег {метель} 10/10 300 м
[Cb cap]
-5.7 -5.7 100 -12 -12 1008.0 1007.6 -5.5 2
18 17.04 СЗ 5 10 км {ливн. осадки, метель} 10/8 300 м
[St Ac trans]
-2.3 -2.3 100 -9 -9 1007.1 1006.7
21 17.04 СЗ 5 2000 м дымка 10/10 300 м
[St]
-2.7 -2.7 100 -10 -10 1007.1 1006.7
00 18.04 СЗ 3 2000 м дымка 10/10 300 м
[St]
-2.8 -2.8 100 -8 -8 1007.0 1006.6
03 18.04 СЗ 4 4000 м дымка 10/10 300 м
[St]
-4.5 -4.6 99 -11 -11 1007.7 1007.3 -5.7 111
06 18.04 СЗ 5 4000 м слаб. ливневой снег 10/8 300 м
[Cb cap Ac trans]
-3.9 -3.9 100 -11 -11 1007.9 1007.5 -5.8
09 18.04 СЗ 4 10 км {ливн. осадки} 10/10 600 м
[Sc]
-3.0 -3.6 96 -9 -9 1009.0 1008.6
12 18.04 ЮЗ 4 20 км {ливн. осадки} 10/6 600 м
[Sc Ac trans]
-1.4 -2.3 94 -7 -7 1008.2 1007.8
15 18.04 З 6
{10}
10 км в посл. час ливневой снег 10/10 600 м
[Sc]
-1.6 -1.9 98 -9 -9 1006.6 1006.2 -0.7 0.0
18 18.04 СЗ 6
{10}
10 км {ливн. осадки} 10/10 600 м
[Sc]
-2.6 -2.6 100 -10 -10 1006.1 1005.7
21 18.04 СЗ 7 20 км 9/9 600 м
[Sc]
-5.1 -6.6 89 -14 -14 1007.3 1006.9
00 19.04 СЗ 7
{11}
10 км позёмок 9/9 600 м
[Sc]
-7.6 -8.1 96 -17 -17 1009.0 1008.6
03 19.04 СЗ 7-10
{11}
20 км позёмок 3/1 600 м
[Sc Ci fib]
-8.5 -9.6 92 -18 -17 1010.2 1009.8 -8.5 115
06 19.04 С 8-10
{13}
4000 м слаб. ливневой снег {метель} 10/8 300 м
[Cb cap Ac trans]
-9.2 -10.6 90 -19 -19 1011.8 1011.4 -9.2
09 19.04 СЗ 7
{10}
4000 м слаб. ливневой снег {метель} 10/8 300 м
[Cb cap Ac trans]
-8.9 -10.2 90 -18 -18 1014.0 1013.6
12 19.04 СЗ 5 20 км {ливн. осадки, метель} 6/3 600 м
[Sc Ac trans]
-8.9 -10.3 90 -17 -16 1015.2 1014.8
15 19.04 З 3 10 км 5/3 600 м
[Sc Ac trans]
-12.2 -13.2 92 -18 -18 1016.0 1015.6 -8.2 0.0
18 19.04 З 3 10 км 9/5 600 м
[Sc Ac trans]
-12.1 -12.9 94 -18 -18 1016.2 1015.8
21 19.04 З 2 10 км 6/3 600 м
[Sc Ac trans]
-14.0 -14.8 94 -19 -19 1016.3 1015.9
00 20.04 Ю 1 10 км ясно -17.3 -18.2 93 -20 -20 1016.0 1015.6
03 20.04 Ю 3 10 км 3/3 600 м
[Sc]
-13.9 -14.7 94 -20 -19 1015.2 1014.8 -17.6 115
06 20.04 Ю 4 10 км 4/3 600 м
[Sc Ac trans]
-9.9 -10.9 92 -17 -14 1014.5 1014.1
09 20.04 Ю 5 10 км 10/0
[Ac trans]
-5.1 -6.2 92 -12 -11 1012.6 1012.2
12 20.04 Ю 5 4000 м слаб. ливневой снег 10/10 300 м
[Cb cap]
-2.8 -2.8 100 -10 -10 1010.8 1010.4
15 20.04 З 5 4000 м слаб. ливневой снег 10/10 300 м
[Cb cap]
-0.5 -0.5 100 -7 -7 1009.1 1008.7 -0.5 0.9
18 20.04 ЮЗ 6
{10}
4000 м слаб. ливневой снег 10/10 300 м
[Cb cap]
-1.4 -1.4 100 -9 -9 1007.0 1006.6
21 20.04 ЮЗ 7-10
{11}
4000 м слаб. ливневой снег 8/8 300 м
[Cb cap]
-1.3 -1.3 100 -9 -9 1003.5 1003.1
00 21.04 ЮЗ 5
{10}
10 км {ливн. осадки} 10/10 300 м
[St]
-1.0 -1.0 100 -8 -8 1001.4 1001.0
03 21.04 З 5 10 км 10/10 300 м
[St]
-0.1 -0.3 99 -6 -6 1001.9 1001.5 -2.1 0.5 115
06 21.04 З 8-12
{12}
10 км позёмок 10/4 600 м
[Sc Ac trans]
0.0 -0.5 96 -8 -7 1002.3 1001.9
09 21.04 З 5
{12}
10 км {метель} 9/3 600 м
[Sc Ac trans]
+0.1 -0.3 97 -6 -5 1003.6 1003.2
12 21.04 З 7
{10}
10 км {метель} 9/6 600 м
[Sc Ac trans]
0.0 -0.5 96 -7 -7 1004.6 1004.2
15 21.04 З 6
{10}
10 км 9/9 600 м
[Sc]
+0.1 -0.3 97 -7 -7 1004.0 1003.6 +0.5
18 21.04 ЮЗ 9-12
{12}
10 км {ливн. осадки} 10/9 300 м
[St Ac trans]
-0.2 -0.4 99 -8 -8 1002.5 1002.1
21 21.04 ЮЗ 7-10
{12}
4000 м слаб. ливневой снег 10/10 300 м
[Cb cap]
-0.2 -0.2 100 -8 -8 999.3 998.9
00 22.04 ЮЗ 9-12
{13}
10 км {ливн. осадки} 10/8 600 м
[Sc Ac trans]
+0.6 +0.6 100 -7 -7 995.5 995.1
03 22.04 З 12-15
{16}
10 км 9/6 600 м
[Sc Ac trans]
+1.0 +0.4 96 -8 -8 995.1 994.7 -0.6 2 115
06 22.04 ЮЗ 9-12
{15}
10 км 10/8 300 м
[St Ac trans]
+1.0 +0.5 96 -7 -7 994.9 994.5
09 22.04 З 10-12
{14}
10 км 8/6 600 м
[Sc Ac trans]
+1.1 +0.5 96 -7 -7 994.2 993.8
12 22.04 ЮЗ 12-14
{16}
10 км 6/3 600 м
[Sc Ac trans]
+0.9 +0.1 94 -8 -8 992.7 992.3
15 22.04 ЮЗ 13-16
{16}
4000 м слаб. ливневой снег 10/8 300 м
[Cb cap Ac trans]
+0.7 +0.3 97 -8 -8 990.6 990.2 +1.3 0.0
18 22.04 СЗ 14-19
{19}
10 км {ливн. осадки} 10/8 300 м
[St Ac trans]
-2.2 -2.3 99 -13 -13 992.0 991.6
21 22.04 СЗ 13-17
{21}
20 км {ливн. осадки} 10/8 600 м
[Sc Ac trans]
-7.9 -9.5 88 -19 -19 998.4 998.0
00 23.04 СЗ 11-17
{20}
4000 м слаб. ливневой снег 10/8 300 м
[Cb cap Ac trans]
-9.3 -10.9 88 -20 -20 1003.7 1003.3
03 23.04 СЗ 9-11
{17}
20 км {ливн. осадки} 10/8 600 м
[Sc Ac trans]
-10.9 -12.4 89 -21 -21 1007.6 1007.2 -11.1 0.0 114
06 23.04 СЗ 8-10
{13}
20 км {ливн. осадки} 4/1 600 м
[Sc Ac trans]
-10.3 -13.2 79 -20 -19 1010.7 1010.3 -11.6
09 23.04 СЗ 8
{11}
20 км 3/3 600 м
[Sc]
-10.0 -13.3 77 -20 -19 1013.4 1013.0
12 23.04 СЗ 4
{10}
20 км 3/3 600 м
[Sc]
-8.4 -11.8 76 -15 -14 1014.8 1014.4
15 23.04 ЮЗ 3 20 км 9/9 600 м
[Sc]
-8.8 -11.0 84 -15 -15 1014.8 1014.4 -7.8
18 23.04 ЮЗ 5 20 км 9/9 600 м
[Sc]
-8.7 -10.1 90 -16 -16 1014.4 1014.0
21 23.04 ЮЗ 5 20 км 9/9 600 м
[Sc]
-9.0 -10.5 89 -17 -17 1013.8 1013.4

 

Местоположение метеостанции Усть-Кара (Ненецкий АО, Россия): широта 69.25 долгота 64.93 высота над уровнем моря 3 м.

В архиве по умолчанию представлена погода в Усть-Каре за последнюю неделю. Архивные данные за месяц целиком и за предыдущие месяцы, начиная с января 2011 года, Вы можете получить, выбрав интересующий диапазон дат из раскрывающегося списка и нажав кнопку "Ввод!".


*Определитесь, кто Вы:
робот инопланетянин человек

Внимание! Время в таблицах - всемирное. Для получения местного времени необходимо прибавить поправку, которая равна 3 ч.

Смотрите также архив погоды в соседних городах и на ближайших метеорологических станциях:

Погода в Марресале (Ямало-Ненецкий АО, Россия) (89 км)
Погода в Амдерме (Ненецкий АО, Россия) (139 км)
Погода на Мысе Белый Нос (Ненецкий АО, Россия) (189 км)
Погода в Воркуте (Коми, Россия) (201 км)
Погода в Елецкой (Коми, Россия) (247 км)
Погода в Имени Федорова (Ненецкий АО, Россия) (261 км)
Погода в Харпе (Ямало-Ненецкий АО, Россия) (275 км)
Погода в Варандее (Ненецкий АО, Россия) (279 км)
Погода в Белоярске (Ямало-Ненецкий АО, Россия) (296 км)
Погода в Сеяхе (Ямало-Ненецкий АО, Россия) (310 км)

Пояснения к столбцам:

Ветер - указаны скорость ветра в м/с - средняя за 10 мин, порывы в срок и между сроками (в фигурных скобках) и направление, откуда дует ветер: С - северный, СВ - северо-восточный, В - восточный, ЮВ - юго-восточный, Ю - южный, ЮЗ - юго-западный, З - западный, СЗ - северо-западный.
Видимость - горизонтальная дальность видимости в метрах или километрах. При видимости от 1 до 10 км при отсутствии осадков обычно наблюдается дымка, при ухудшении видимости до 1 км и менее - туман. В сухую погоду видимость может ухудшаться дымом, пылью или мглою.
Явления - указаны атмосферные явления, наблюдавшиеся в срок или в последний час перед сроком; фигурными скобками обозначены явления, наблюдавшиеся между сроками (за 1-3 часа до срока); квадратными скобками обозначены град или гололедные отложения с указанием их диаметра в мм.
Облачность - указаны через наклонную черту общая и нижняя облачность в баллах и высота нижней границы облаков в метрах; квадратными скобками обозначены формы облаков: Ci - перистые, Cs - перисто-слоистые, Cc - перисто-кучевые, Ac - высококучевые, As - высокослоистые, Sc - слоисто-кучевые, Ns - слоисто-дождевые, Cu - кучевые, Cb - кучево-дождевые. Подробнее классификацию облаков см. в Атласе облаков (PDF).
T - Температура воздуха - температура, измеренная на высоте 2 м над землей.
Td - Температура точки росы - температура, при понижении до которой содержащийся в воздухе водяной пар достигнет насыщения.
f - Относительная влажность воздуха - влажноcть воздуха, измеренная на высоте 2 м над землей.
Te - Эффективная температура - температура, которую ощущает одетый по сезону человек в тени. Характеристика душности погоды. При расчете учитывается влияние влажности воздуха и скорости ветра на теплоощущения человека.
Tes - Эффективная температура на солнце - температура, которую ощущает человек, с поправкой на солнечный нагрев. Характеристика знойности погоды. Зависит от высоты солнца над горизонтом, облачности и скорости ветра. Ночью, в пасмурную погоду, а также при ветре 12 м/с и более поправка равна нулю.
P - Атмосферное давление - приведенное к уровню моря атмосферное давление.
Po - Атмосферное давление - измеренное на уровне метеостанции атмосферное давление.
Tmin - Минимальная температура - минимум температуры воздуха на высоте 2 м над землей.
Tmax - Максимальная температура - максимум температуры воздуха на высоте 2 м над землей.
R - Количество осадков - Количество выпавших осадков за период времени, мм. При наведении курсора мыши на число - период времени, за который выпало указанное количество осадков.
R24 - Количество осадков - Количество выпавших осадков за 24 часа, мм.
S - Снежный покров - Высота снежного покрова, см. При наведении курсора мыши на число - состояние снежного покрова и степень покрытия местности в баллах.